Location: Unspecified
(0.0000°N, 0.0000°E)
Time: 10:25:55
(UTC+02:00)

H-2A R/B - Visible Passes

Search period start: 24 July 2014 00:00
Search period end: 03 August 2014 00:00
Orbit: 306 x 33585 km, 28.0° (Epoch: 22 July)

Date Brightness Start Highest point End Pass type
(mag) Time Alt. Az. Time Alt. Az. Time Alt. Az.
25 Jul 5.7 13:39:32 10° WSW 15:11:19 79° W 22:48:08 22° NE visible
27 Jul 5.2 15:02:22 10° WSW 16:33:23 54° W 00:02:13 44° N visible
29 Jul 8.7 16:33:28 10° WSW 17:54:08 30° W 21:25:41 10° WNW visible
30 Jul 5.6 00:56:55 10° WNW 01:16:18 31° NW 01:16:18 31° NW visible
30 Jul 6.3 11:42:29 10° SW 15:10:16 74° NNE 20:53:38 10° ENE visible
01 Aug 5.7 13:01:36 10° SW 14:24:47 83° W 22:11:58 17° ENE visible
